This demonstration page uses our WeatherBlox Daily Observations layout. Learn more.

Left ArrowRight Arrow

41.86663, -103.66717

Hourly Observations for November 5, 2019

Temp ( °F °C ) Dew Point ( °F °C ) Humidity (%) Winds ( mph kmh ) Pressure ( in mb ) Visibility ( mi km ) Precip ( " mm )
12:09 am 00:09 Cloudy 35 1.7 35 1.7 100 100 E 5 7 30.25 1025 8 13 0.00 0.00
12:16 am 00:16 Cloudy 35 1.7 35 1.7 100 100 E 5 7 30.25 1025 8 13 0.00 0.00
12:31 am 00:31 Cloudy 35 1.7 35 1.7 100 100 E 5 7 30.24 1024 8 13 0.00 0.00
12:49 am 00:49 Cloudy 36 2 34 1 93 93 E 6 9 30.24 1024 7 11 0.00 0.00
12:53 am 00:53 Cloudy 35 1.7 34 1.1 96 96 E 6 9 30.20 1023 7 11 0.00 0.00
1:53 am 01:53 Cloudy with Mist and Fog 34 1.1 33 0.6 97 97 E 6 9 30.19 1022 6 10 0.00 0.00
2:17 am 02:17 Mostly Cloudy with Mist and Fog 33 0.6 33 0.6 100 100 E 6 9 30.25 1024 4 6 0.00 0.00
2:24 am 02:24 Mostly Cloudy with Mist and Fog 33 0.6 33 0.6 100 100 E 5 7 30.24 1024 2 3 0.00 0.00
2:29 am 02:29 Partly Cloudy with Mist and Fog 33 0.6 32 0 96 96 E 5 7 30.24 1024 3 5 0.00 0.00
2:53 am 02:53 Mostly Clear with Mist and Fog 32 0 32 0 100 100 SSE 3 6 30.18 1022 5 8 0.00 0.00
2:59 am 02:59 Partly Cloudy with Mist and Fog 33 0.6 33 0.6 100 100 SE 3 6 30.24 1024 2 2 0.00 0.00
3:02 am 03:02 Mostly Cloudy with Mist and Fog 34 1 34 1 100 100 SE 3 6 30.24 1024 1 1 0.00 0.00
3:17 am 03:17 Cloudy with Fog 33 0.6 33 0.6 100 100 SE 3 6 30.23 1024 1 1 0.00 0.00
3:35 am 03:35 Mostly Cloudy with Fog 34 1.1 33 0.6 97 97 SSE 5 7 30.23 1024 0 0 0.00 0.00
3:50 am 03:50 Cloudy with Fog 34 1 34 1 100 100 S 3 6 30.24 1024 1 1 0.00 0.00
3:53 am 03:53 Cloudy with Mist and Fog 34 1.1 34 1.1 100 100 S 3 6 30.18 1022 1 2 0.00 0.00
3:58 am 03:58 Cloudy with Mist and Fog 34 1.1 34 1.1 100 100 SSW 3 6 30.23 1024 3 5 0.00 0.00
4:41 am 04:41 Cloudy with Mist and Fog 33 0.6 33 0.6 100 100 W 3 6 30.25 1024 3 5 0.00 0.00
4:51 am 04:51 Cloudy with Mist and Fog 34 1 34 1 100 100 WSW 5 7 30.24 1024 2 3 0.00 0.00
4:53 am 04:53 Cloudy with Mist and Fog 33 0.6 33 0.6 100 100 WSW 6 9 30.19 1022 1 2 0.00 0.00
5:02 am 05:02 Mostly Cloudy with Fog 33 0.6 33 0.6 100 100 W 5 7 30.25 1024 1 1 0.00 0.00
5:11 am 05:11 Mostly Cloudy with Fog 34 1 34 1 100 100 WSW 5 7 30.24 1024 0 0 0.00 0.00
5:53 am 05:53 Mostly Cloudy with Fog 33 0.6 33 0.6 100 100 Calm 30.19 1022 0 0 0.00 0.00
6:53 am 06:53 Mostly Cloudy with Fog 33 0.6 33 0.6 100 100 Calm 30.19 1022 N/A 0.00 0.00
7:53 am 07:53 Mostly Cloudy with Fog 33 0.6 33 0.6 100 100 N 5 7 30.22 1023 0 0 0.00 0.00
8:02 am 08:02 Cloudy with Fog 34 1 34 1 100 100 N 5 7 30.27 1025 1 1 0.00 0.00
8:48 am 08:48 Cloudy with Mist and Fog 34 1 34 1 100 100 NNW 3 6 30.27 1025 1 2 0.00 0.00
8:53 am 08:53 Cloudy with Mist and Fog 33 0.6 33 0.6 100 100 Calm 30.22 1024 1 2 0.00 0.00
9:09 am 09:09 Cloudy with Mist and Fog 33 0.6 33 0.6 100 100 N 5 7 30.27 1025 3 5 0.00 0.00
9:53 am 09:53 Cloudy 36 2.2 34 1.1 93 93 Calm 30.22 1023 9 14 0.00 0.00
10:09 am 10:09 undefined 38 3.3 36 2.2 93 93 Calm 30.23 1024 10 16 0.00 0.00
10:53 am 10:53 Sunny 45 7.2 37 2.8 74 74 VRB 3 6 30.18 1022 10 16 0.00 0.00
11:53 am 11:53 Sunny 50 10 37 2.8 61 61 VRB 7 11 30.13 1020 10 16 0.00 0.00
12:53 pm 12:53 Sunny 53 11.7 36 2.2 52 52 W 7 11 30.10 1019 10 16 0.00 0.00
1:53 pm 13:53 Sunny 57 13.9 37 2.8 47 47 VRB 3 6 30.07 1018 10 16 0.00 0.00
2:53 pm 14:53 Sunny 59 15 35 1.7 41 41 VRB 5 7 30.07 1018 10 16 0.00 0.00
3:53 pm 15:53 Sunny 58 14.4 34 1.1 41 41 S 3 6 30.06 1018 10 16 0.00 0.00
4:53 pm 16:53 Clear 49 9.4 36 2.2 61 61 Calm 30.09 1019 10 16 0.00 0.00
5:53 pm 17:53 Clear 45 7.2 35 1.7 68 68 S 3 6 30.11 1020 10 16 0.00 0.00
6:53 pm 18:53 Clear 38 3.3 33 0.6 83 83 E 5 7 30.14 1021 10 16 0.00 0.00
7:53 pm 19:53 Clear 35 1.7 31 -0.6 85 85 ESE 3 6 30.15 1021 10 16 0.00 0.00
8:53 pm 20:53 Clear 36 2.2 31 -0.6 82 82 E 5 7 30.15 1021 10 16 0.00 0.00
9:53 pm 21:53 Clear 34 1.1 30 -1.1 85 85 ENE 5 7 30.15 1021 10 16 0.00 0.00
10:53 pm 22:53 Clear 32 0 30 -1.1 92 92 ENE 7 11 30.12 1020 10 16 0.00 0.00
11:53 pm 23:53 Clear 32 0 29 -1.7 88 88 NNE 5 7 30.11 1020 10 16 0.00 0.00

Powered by AerisWeather